Defiance, OH

2:14 PM EST on February 26, 2017 (GMT -0500)
Defiance Memorial

Weather History for KDFI - December, 2012

Change the Weather History Date:

Saturday, December 15, 2012

  Actual Average Record
Temperature  
Mean Temperature 41 °F -  
Max Temperature 50 °F 37 °F 66 °F (1975)
Min Temperature 32 °F 22 °F -5 °F (1945)
Degree Days  
Heating Degree Days 24    
Moisture  
Dew Point 36 °F    
Average Humidity 79    
Maximum Humidity 88    
Minimum Humidity 60    
Precipitation  
Precipitation 0.06 in - - ()
Sea Level Pressure  
Sea Level Pressure 29.93 in    
Wind  
Wind Speed 4 mph (SSE)    
Max Wind Speed 15 mph    
Max Gust Speed 21 mph    
Visibility 10 miles    
Events Rain    
Averages and records for this station are not official NWS values.
T = Trace of Precipitation, MM = Missing Value Source: NWS Daily Summary

Daily Weather History Graph

Daily Weather History Graph

Search for Another Location

Airport or City:

Trip Planner

Search our weather history database for the weather conditions in past years. The results will help you decide how hot, cold, wet, or windy it might be!

Date:

Astronomy

Dec. 15, 2012 Rise Set
Actual Time 7:56 AM EST 5:09 PM EST
Civil Twilight 7:25 AM EST 5:40 PM EST
Nautical Twilight 6:50 AM EST 6:15 PM EST
Astronomical Twilight 6:17 AM EST 6:49 PM EST
Moon 9:47 AM EST (12/15) 8:13 PM EST (12/15)
Length of Visible Light 10h 15m
Length of Day
9h 12m
Waxing Crescent, 8% of the Moon is Illuminated
Dec 15
Waxing Crescent
Dec 20
First Quarter
Dec 28
Full
Jan 4
Last Quarter
Jan 11
New

Hourly Weather History & Observations

Time (EST) Temp. Windchill Dew Point Humidity Pressure Visibility Wind Dir Wind Speed Gust Speed Precip Events Conditions
12:53 AM 32.0 °F - 28.0 °F 85% 30.16 in 10.0 mi Calm Calm - N/A   Clear
1:53 AM 33.1 °F - 28.9 °F 85% 30.15 in 10.0 mi Calm Calm - N/A   Clear
2:53 AM 32.0 °F - 28.9 °F 88% 30.14 in 9.0 mi Calm Calm - N/A   Clear
3:53 AM 32.0 °F - 28.9 °F 88% 30.14 in 8.0 mi Calm Calm - N/A   Clear
4:53 AM 34.0 °F - 28.9 °F 82% 30.12 in 10.0 mi Calm Calm - N/A   Clear
5:53 AM 34.0 °F - 28.9 °F 82% 30.12 in 10.0 mi Calm Calm - N/A   Mostly Cloudy
6:53 AM 34.0 °F 31.0 °F 28.9 °F 82% 30.12 in 10.0 mi ENE 3.5 mph - N/A   Partly Cloudy
7:53 AM 35.1 °F 32.2 °F 28.9 °F 78% 30.12 in 10.0 mi ESE 3.5 mph - N/A   Mostly Cloudy
8:53 AM 37.9 °F 34.4 °F 30.0 °F 73% 30.10 in 10.0 mi ESE 4.6 mph - N/A   Clear
9:53 AM 39.9 °F 35.8 °F 30.0 °F 68% 30.06 in 10.0 mi SE 5.8 mph - N/A   Overcast
10:53 AM 41.0 °F 37.1 °F 30.9 °F 67% 30.02 in 10.0 mi SE 5.8 mph - 0.00 in Rain Light Rain
11:53 AM 44.1 °F 40.8 °F 30.9 °F 60% 30.01 in 10.0 mi SSE 5.8 mph - 0.00 in   Overcast
12:53 PM 45.0 °F 38.9 °F 32.0 °F 60% 29.91 in 10.0 mi SSE 12.7 mph 18.4 mph 0.00 in Rain Light Rain
1:53 PM 45.0 °F 41.2 °F 35.1 °F 68% 29.88 in 10.0 mi SSE 6.9 mph - 0.00 in Rain Light Rain
2:53 PM 45.0 °F 42.6 °F 37.0 °F 74% 29.89 in 7.0 mi SSE 4.6 mph - 0.02 in Rain Light Rain
3:53 PM 44.1 °F 39.5 °F 39.9 °F 85% 29.83 in 10.0 mi ESE 8.1 mph - 0.04 in   Overcast
4:53 PM 45.0 °F 40.6 °F 39.9 °F 82% 29.81 in 10.0 mi SE 8.1 mph - N/A   Overcast
5:36 PM 44.6 °F 42.2 °F 41.0 °F 87% 29.79 in 10.0 mi SSE 4.6 mph - N/A   Overcast
5:53 PM 46.0 °F 43.1 °F 41.0 °F 83% 29.81 in 10.0 mi SSE 5.8 mph - N/A   Overcast
6:53 PM 48.0 °F - 41.0 °F 77% 29.78 in 10.0 mi South 11.5 mph - N/A   Overcast
7:25 PM 48.2 °F - 42.8 °F 82% 29.76 in 9.0 mi South 12.7 mph - 0.00 in Rain Light Rain
7:53 PM 48.0 °F - 43.0 °F 83% 29.76 in 10.0 mi South 13.8 mph 20.7 mph 0.00 in   Overcast
8:33 PM 48.2 °F - 42.8 °F 82% 29.73 in 10.0 mi South 11.5 mph 18.4 mph N/A   Overcast
8:53 PM 48.9 °F - 43.0 °F 80% 29.74 in 10.0 mi South 12.7 mph - N/A   Overcast
9:53 PM 50.0 °F - 45.0 °F 83% 29.73 in 10.0 mi South 15.0 mph - N/A   Overcast
10:53 PM 50.0 °F - 45.0 °F 83% 29.72 in 10.0 mi SSW 12.7 mph - N/A   Overcast
11:53 PM 50.0 °F - 46.0 °F 86% 29.70 in 10.0 mi South 11.5 mph - 0.00 in   Overcast